Miscellaneous Local Product
Issued by NWS Hastings, NE

Home | Current Version | Previous Version | Graphics & Text | Print | Product List | Glossary On
Versions: 1 2 3 4 5 6 7 8 9 10 11 12 13 14 15 16 17 18 19 20 21 22 23 24 25 26 27 28 29 30 31 32 33 34 35 36 37 38 39 40 41 42 43 44 45 46 47 48 49 50
000
AXUS43 KGID 180002
MISGRI

GID CWA HOURLY WEATHER ROUNDUP
NATIONAL WEATHER SERVICE HASTINGS NE
700 PM CDT THU APR 17 2014

NOTE: "FAIR" INDICATES FEW OR NO CLOUDS BELOW 12,000 FEET WITH NO
SIGNIFICANT WEATHER AND/OR OBSTRUCTIONS TO VISIBILITY.

...SOUTH CENTRAL NEBRASKA...

CITY           SKY/WX    TMP DP  RH WIND       PRES   REMARKS
GRAND ISLAND   SUNNY     54  24  31 SE6       30.21F
HASTINGS       SUNNY     54  24  31 VRB5      30.20S
KEARNEY        SUNNY     54  25  32 S6        30.19F
ORD            SUNNY     52  25  35 S12       30.18F
YORK           SUNNY     54  23  30 SE5       30.22S
AURORA         SUNNY     54  24  30 SE5       30.21S
LEXINGTON      SUNNY     54  33  45 S12G17    30.18S
HOLDREGE       SUNNY     53  26  35 S6        30.19F
HEBRON         SUNNY     55  25  30 SE5       30.22S

...NEBRASKA PANHANDLE...

CITY           SKY/WX    TMP DP  RH WIND       PRES   REMARKS
CHADRON        SUNNY     55  37  50 SE16      29.98F
ALLIANCE       SUNNY     54  34  46 S18       30.01F
SCOTTSBLUFF    SUNNY     59  36  42 SE23G29   29.97F
SIDNEY         SUNNY     61  34  36 SE15      30.01F

...WESTERN AND NORTH CENTRAL NEBRASKA...

CITY           SKY/WX    TMP DP  RH WIND       PRES   REMARKS
VALENTINE      SUNNY     54  24  31 S18       30.10F
AINSWORTH      SUNNY     53  25  33 SE14G20   30.12F
ONEILL         MOSUNNY   51  17  25 SE8       30.19F
BROKEN BOW     SUNNY     51  26  37 S12G22    30.16F
IMPERIAL       SUNNY     56  36  47 S23G31    30.09F
NORTH PLATTE   MOSUNNY   54  30  40 S13G22    30.12F
MCCOOK         CLOUDY    56  34  43 S10       30.16F

...EASTERN NEBRASKA...

CITY           SKY/WX    TMP DP  RH WIND       PRES   REMARKS
NORFOLK        PTSUNNY   52  21  29 S5        30.22S
SO SIOUX CITY  PTSUNNY   51  23  33 N3        30.25F
TEKAMAH        SUNNY     55  19  24 CALM      30.24S
COLUMBUS       MOSUNNY   36  25  64 CALM      30.24S
ALBION         PTSUNNY   51  22  32 S7        30.21F
OMAHA EPPLEY   SUNNY     55  24  30 CALM      30.24F
OFFUTT AFB     SUNNY     56  27  32 CALM      30.24F
MILLARD        SUNNY     54  25  32 SE3       30.24S
LINCOLN        SUNNY     57  21  24 CALM      30.24F
NEBRASKA CITY  SUNNY     54  27  36 CALM      30.24S
BEATRICE       SUNNY     55  26  32 SE5       30.23S
FALLS CITY     SUNNY     53  29  39 CALM      30.24F

...NORTHERN KANSAS...

CITY           SKY/WX    TMP DP  RH WIND       PRES   REMARKS
GOODLAND       MOSUNNY   53  37  54 S23G29    30.14F
HILL CITY      SUNNY     57  30  35 VRB5      30.19S
PHILLIPSBURG   SUNNY     55  27  33 E5        30.20S
SMITH CENTER   SUNNY     54  27  35 S5        30.21F
BELOIT         SUNNY     55  27  33 CALM      30.21F
HAYS           SUNNY     55  30  38 SE5       30.21S
RUSSELL        SUNNY     56  30  37 SE7       30.20S
CONCORDIA      SUNNY     55  27  34 E3        30.22S
SALINA         SUNNY     56  29  35 VRB3      30.23S
TOPEKA         MOSUNNY   53  33  46 E3        30.26F



USA.gov is the U.S. government's official web portal to all federal, state and local government web resources and services.